HVN605 VVTS-VTSP

Flight info

Callsign HVN605
Flight time 1h 22m
Altitude 36000
Route SAPEN5K SAPEN R468 ELMOP P629 TIA R588 NIMIB W5 KOS R588 EMRIT EMRIT1C
Aircraft A321/M-SDE3FGHIRWY/LB1

Departure

Time 2026-05-08 16:43
Airport Tan Son Nhat International Airport (VVTS)

Arrival

Time 2026-05-08 18:06
Airport Phuket International Airport (VTSP)
Time Latitude Longitude Altitude Speed Heading
2026-05-08 16:30 10.81676 106.66187 38 ft 0 kts 158°
2026-05-08 16:34 10.81680 106.66185 37 ft 3 kts 158°
2026-05-08 16:34 10.81705 106.66174 36 ft 4 kts 154°
2026-05-08 16:35 10.81729 106.66162 37 ft 4 kts 150°
2026-05-08 16:35 10.81751 106.66147 37 ft 4 kts 136°
2026-05-08 16:35 10.81765 106.66127 37 ft 4 kts 88°
2026-05-08 16:35 10.81765 106.66120 34 ft 0 kts 69°
2026-05-08 16:38 10.81765 106.66121 65 ft 1 kts 69°
2026-05-08 16:38 10.81775 106.66147 37 ft 6 kts 69°
2026-05-08 16:39 10.81791 106.66191 37 ft 7 kts 69°
2026-05-08 16:39 10.81811 106.66244 37 ft 9 kts 69°
2026-05-08 16:39 10.81849 106.66290 37 ft 9 kts 17°
2026-05-08 16:39 10.81914 106.66278 37 ft 10 kts 357°
2026-05-08 16:40 10.81955 106.66329 37 ft 10 kts 64°
2026-05-08 16:40 10.81986 106.66403 36 ft 13 kts 69°
2026-05-08 16:40 10.82020 106.66495 34 ft 15 kts 69°
2026-05-08 16:40 10.82059 106.66598 34 ft 16 kts 69°
2026-05-08 16:41 10.82101 106.66707 33 ft 17 kts 69°
2026-05-08 16:41 10.82146 106.66826 31 ft 19 kts 69°
2026-05-08 16:41 10.82192 106.66948 34 ft 18 kts 69°
2026-05-08 16:42 10.82328 106.66961 35 ft 14 kts 303°
2026-05-08 16:42 10.82351 106.66901 35 ft 8 kts 257°
2026-05-08 16:42 10.82303 106.66774 33 ft 48 kts 249°
2026-05-08 16:42 10.82093 106.66220 37 ft 117 kts 249°
2026-05-08 16:43 10.81729 106.65260 37 ft 170 kts 249°
2026-05-08 16:43 10.81282 106.64058 355 ft 187 kts 246°
2026-05-08 16:43 10.80818 106.62825 1021 ft 186 kts 245°
2026-05-08 16:43 10.80343 106.61571 1410 ft 199 kts 243°
2026-05-08 16:44 10.79812 106.60188 1574 ft 220 kts 244°
2026-05-08 16:44 10.79232 106.58664 1680 ft 244 kts 245°
2026-05-08 16:44 10.78587 106.56969 1914 ft 268 kts 245°
2026-05-08 16:44 10.77901 106.55152 2438 ft 279 kts 246°
2026-05-08 16:45 10.77222 106.53282 3133 ft 284 kts 252°
2026-05-08 16:45 10.77146 106.51283 3828 ft 286 kts 286°
2026-05-08 16:45 10.78030 106.49493 4618 ft 282 kts 308°
2026-05-08 16:45 10.79288 106.47985 5447 ft 278 kts 315°
2026-05-08 16:46 10.80630 106.46570 6208 ft 278 kts 316°
2026-05-08 16:46 10.81966 106.45129 6887 ft 281 kts 315°
2026-05-08 16:46 10.83268 106.43627 7501 ft 286 kts 313°
2026-05-08 16:46 10.84546 106.42051 8088 ft 292 kts 311°
2026-05-08 16:47 10.85810 106.40412 8664 ft 297 kts 309°
2026-05-08 16:47 10.87054 106.38748 9229 ft 302 kts 308°
2026-05-08 16:47 10.88322 106.37022 9797 ft 307 kts 308°
2026-05-08 16:47 10.89618 106.35246 10098 ft 322 kts 307°
2026-05-08 16:48 10.90992 106.33361 10224 ft 342 kts 307°
2026-05-08 16:48 10.92450 106.31364 10347 ft 361 kts 307°
2026-05-08 16:48 10.93988 106.29262 10462 ft 379 kts 307°
2026-05-08 16:48 10.95598 106.27066 10578 ft 395 kts 307°
2026-05-08 16:49 10.97270 106.24785 10697 ft 409 kts 307°
2026-05-08 16:49 10.98993 106.22436 11003 ft 417 kts 307°
2026-05-08 16:49 11.00737 106.20055 11445 ft 421 kts 307°
2026-05-08 16:49 11.02276 106.17508 11899 ft 425 kts 297°
2026-05-08 16:50 11.03437 106.14723 12368 ft 429 kts 292°
2026-05-08 16:50 11.04543 106.11893 12839 ft 432 kts 292°
2026-05-08 16:50 11.05661 106.09041 13309 ft 435 kts 292°
2026-05-08 16:50 11.06788 106.06171 13764 ft 439 kts 292°
2026-05-08 16:51 11.07928 106.03276 14166 ft 442 kts 292°
2026-05-08 16:51 11.09077 106.00365 14577 ft 444 kts 292°
2026-05-08 16:51 11.09964 105.97353 14963 ft 447 kts 279°
2026-05-08 16:51 11.10050 105.94194 15347 ft 448 kts 263°
2026-05-08 16:52 11.09455 105.91071 15727 ft 450 kts 257°
2026-05-08 16:52 11.08775 105.87950 16100 ft 452 kts 256°
2026-05-08 16:52 11.08076 105.84809 16478 ft 455 kts 256°
2026-05-08 16:52 11.07384 105.81703 16840 ft 457 kts 256°
2026-05-08 16:53 11.05982 105.75350 17555 ft 461 kts 257°
2026-05-08 16:53 11.05282 105.72150 17896 ft 463 kts 257°
2026-05-08 16:53 11.04581 105.68936 18227 ft 466 kts 257°
2026-05-08 16:54 11.03882 105.65741 18505 ft 467 kts 256°
2026-05-08 16:54 11.03170 105.62502 18794 ft 469 kts 257°
2026-05-08 16:54 11.02455 105.59256 19077 ft 471 kts 257°
2026-05-08 16:54 11.01738 105.55994 19352 ft 473 kts 257°
2026-05-08 16:55 11.01018 105.52713 19628 ft 474 kts 257°
2026-05-08 16:55 11.00299 105.49430 19897 ft 476 kts 257°
2026-05-08 16:55 10.99576 105.46134 20156 ft 478 kts 257°
2026-05-08 16:55 10.98847 105.42828 20409 ft 479 kts 256°
2026-05-08 16:56 10.98114 105.39510 20667 ft 481 kts 257°
2026-05-08 16:56 10.97392 105.36229 20917 ft 482 kts 257°
2026-05-08 16:56 10.96657 105.32894 21158 ft 484 kts 257°
2026-05-08 16:56 10.95920 105.29546 21401 ft 486 kts 257°
2026-05-08 16:57 10.95181 105.26181 21638 ft 487 kts 257°
2026-05-08 16:57 10.94438 105.22814 21876 ft 489 kts 256°
2026-05-08 16:57 10.93690 105.19435 22117 ft 490 kts 256°
2026-05-08 16:57 10.92940 105.16050 22349 ft 492 kts 256°
2026-05-08 16:58 10.92186 105.12652 22569 ft 494 kts 256°
2026-05-08 16:58 10.91429 105.09234 22794 ft 496 kts 256°
2026-05-08 16:58 10.90671 105.05809 23031 ft 497 kts 256°
2026-05-08 16:58 10.89913 105.02375 23269 ft 499 kts 256°
2026-05-08 16:59 10.89152 104.98923 23497 ft 500 kts 256°
2026-05-08 16:59 10.88386 104.95466 23682 ft 502 kts 256°
2026-05-08 16:59 10.87617 104.91999 23864 ft 503 kts 256°
2026-05-08 16:59 10.86845 104.88529 24123 ft 502 kts 256°
2026-05-08 17:00 10.86072 104.85071 24408 ft 500 kts 256°
2026-05-08 17:00 10.85304 104.81627 24685 ft 499 kts 256°
2026-05-08 17:00 10.84539 104.78181 24952 ft 499 kts 257°
2026-05-08 17:00 10.83778 104.74739 25231 ft 498 kts 257°
2026-05-08 17:01 10.83018 104.71313 25517 ft 497 kts 257°
2026-05-08 17:01 10.82255 104.67886 25811 ft 496 kts 257°
2026-05-08 17:01 10.81493 104.64461 26105 ft 495 kts 257°
2026-05-08 17:01 10.80734 104.61053 26401 ft 494 kts 257°
2026-05-08 17:02 10.79973 104.57651 26698 ft 493 kts 257°
2026-05-08 17:02 10.79213 104.54256 27001 ft 492 kts 257°
2026-05-08 17:02 10.78457 104.50872 27296 ft 491 kts 257°
2026-05-08 17:02 10.77701 104.47487 27600 ft 490 kts 257°
2026-05-08 17:03 10.76945 104.44115 27908 ft 489 kts 257°
2026-05-08 17:03 10.76188 104.40739 28226 ft 488 kts 257°
2026-05-08 17:03 10.75434 104.37378 28529 ft 487 kts 257°
2026-05-08 17:03 10.74692 104.34061 28835 ft 487 kts 257°
2026-05-08 17:04 10.73943 104.30706 29127 ft 486 kts 257°
2026-05-08 17:04 10.73195 104.27350 29441 ft 485 kts 257°
2026-05-08 17:04 10.72450 104.24010 29745 ft 485 kts 257°
2026-05-08 17:04 10.71699 104.20667 30046 ft 484 kts 257°
2026-05-08 17:05 10.70949 104.17333 30310 ft 483 kts 256°
2026-05-08 17:05 10.70200 104.14004 30554 ft 483 kts 256°
2026-05-08 17:05 10.69461 104.10713 30799 ft 482 kts 256°
2026-05-08 17:05 10.68706 104.07347 31053 ft 482 kts 256°
2026-05-08 17:06 10.67958 104.04022 31299 ft 482 kts 256°
2026-05-08 17:06 10.67218 104.00741 31534 ft 482 kts 256°
2026-05-08 17:06 10.66469 103.97426 31785 ft 482 kts 256°
2026-05-08 17:06 10.65718 103.94101 32035 ft 481 kts 256°
2026-05-08 17:07 10.64970 103.90784 32280 ft 481 kts 256°
2026-05-08 17:07 10.64224 103.87471 32529 ft 481 kts 256°
2026-05-08 17:07 10.63476 103.84158 32777 ft 481 kts 256°
2026-05-08 17:07 10.62727 103.80846 33003 ft 481 kts 256°
2026-05-08 17:08 10.61977 103.77537 33268 ft 480 kts 256°
2026-05-08 17:08 10.61228 103.74231 33530 ft 479 kts 256°
2026-05-08 17:08 10.60483 103.70929 33779 ft 479 kts 256°
2026-05-08 17:08 10.59703 103.67646 34010 ft 478 kts 252°
2026-05-08 17:09 10.58516 103.64491 34204 ft 477 kts 243°
2026-05-08 17:09 10.56864 103.61581 34417 ft 475 kts 234°
2026-05-08 17:09 10.54844 103.58922 34632 ft 475 kts 230°
2026-05-08 17:09 10.52788 103.56298 34847 ft 474 kts 231°
2026-05-08 17:10 10.50739 103.53669 35075 ft 473 kts 231°
2026-05-08 17:10 10.48697 103.51044 35306 ft 473 kts 231°
2026-05-08 17:10 10.46660 103.48424 35549 ft 472 kts 231°
2026-05-08 17:10 10.44631 103.45809 35794 ft 471 kts 231°
2026-05-08 17:11 10.40583 103.40606 35894 ft 475 kts 231°
2026-05-08 17:11 10.36474 103.35345 35893 ft 476 kts 231°
2026-05-08 17:12 10.32354 103.30069 35898 ft 476 kts 231°
2026-05-08 17:12 10.28937 103.25690 35896 ft 476 kts 231°
2026-05-08 17:13 10.24828 103.20419 35907 ft 476 kts 230°
2026-05-08 17:13 10.20704 103.15142 35913 ft 477 kts 230°
2026-05-08 17:14 10.16574 103.09866 35926 ft 477 kts 230°
2026-05-08 17:14 10.12447 103.04592 35939 ft 476 kts 231°
2026-05-08 17:15 10.08345 102.99348 35939 ft 476 kts 231°
2026-05-08 17:15 10.04221 102.94072 35938 ft 476 kts 231°
2026-05-08 17:16 10.00100 102.88807 35939 ft 476 kts 230°
2026-05-08 17:16 9.95980 102.83552 35937 ft 476 kts 231°
2026-05-08 17:17 9.91861 102.78291 35935 ft 476 kts 230°
2026-05-08 17:17 9.87756 102.73061 35935 ft 477 kts 230°
2026-05-08 17:18 9.83623 102.67790 35930 ft 477 kts 230°
2026-05-08 17:18 9.79488 102.62515 35930 ft 478 kts 230°
2026-05-08 17:19 9.75348 102.57233 35932 ft 478 kts 230°
2026-05-08 17:19 9.71201 102.51955 35933 ft 478 kts 230°
2026-05-08 17:20 9.67058 102.46683 35931 ft 478 kts 230°
2026-05-08 17:20 9.62910 102.41408 35931 ft 478 kts 230°
2026-05-08 17:21 9.58760 102.36140 35935 ft 478 kts 230°
2026-05-08 17:21 9.54650 102.30900 35935 ft 478 kts 230°
2026-05-08 17:22 9.50520 102.25609 35934 ft 478 kts 230°
2026-05-08 17:22 9.46400 102.20328 35934 ft 478 kts 230°
2026-05-08 17:23 9.42265 102.15044 35935 ft 478 kts 230°
2026-05-08 17:23 9.38141 102.09765 35936 ft 478 kts 230°
2026-05-08 17:24 9.34007 102.04489 35934 ft 478 kts 230°
2026-05-08 17:24 9.29875 101.99208 35936 ft 478 kts 230°
2026-05-08 17:25 9.25774 101.93975 35936 ft 477 kts 230°
2026-05-08 17:25 9.21649 101.88704 35933 ft 478 kts 230°
2026-05-08 17:26 9.17524 101.83432 35933 ft 478 kts 230°
2026-05-08 17:26 9.13394 101.78164 35933 ft 478 kts 230°
2026-05-08 17:27 9.09262 101.72895 35932 ft 478 kts 230°
2026-05-08 17:27 9.05129 101.67634 35932 ft 478 kts 230°
2026-05-08 17:28 9.01000 101.62364 35936 ft 477 kts 230°
2026-05-08 17:28 8.96878 101.57099 35935 ft 477 kts 230°
2026-05-08 17:29 8.92750 101.51838 35932 ft 477 kts 230°
2026-05-08 17:29 8.88643 101.46615 35929 ft 477 kts 230°
2026-05-08 17:30 8.84504 101.41356 35926 ft 477 kts 230°
2026-05-08 17:30 8.80368 101.36099 35926 ft 478 kts 230°
2026-05-08 17:31 8.76223 101.30834 35930 ft 478 kts 230°
2026-05-08 17:31 8.72082 101.25571 35927 ft 478 kts 230°
2026-05-08 17:32 8.67943 101.20302 35926 ft 479 kts 230°
2026-05-08 17:32 8.63822 101.15068 35926 ft 479 kts 230°
2026-05-08 17:33 8.59670 101.09796 35930 ft 479 kts 230°
2026-05-08 17:33 8.55517 101.04526 35930 ft 479 kts 230°
2026-05-08 17:34 8.51354 100.99255 35926 ft 480 kts 230°
2026-05-08 17:34 8.47191 100.93977 35925 ft 480 kts 230°
2026-05-08 17:35 8.43024 100.88700 35922 ft 480 kts 230°
2026-05-08 17:35 8.38855 100.83421 35920 ft 480 kts 230°
2026-05-08 17:36 8.34677 100.78134 35918 ft 481 kts 230°
2026-05-08 17:36 8.30502 100.72859 35919 ft 481 kts 230°
2026-05-08 17:37 8.26323 100.67582 35916 ft 481 kts 230°
2026-05-08 17:37 8.22151 100.62298 35916 ft 481 kts 230°
2026-05-08 17:38 8.17979 100.57018 35913 ft 481 kts 230°
2026-05-08 17:38 8.13822 100.51769 35909 ft 482 kts 230°
2026-05-08 17:39 8.09938 100.46268 35909 ft 484 kts 242°
2026-05-08 17:39 8.07895 100.39820 35904 ft 486 kts 262°
2026-05-08 17:40 8.07816 100.33002 35903 ft 487 kts 271°
2026-05-08 17:40 8.07986 100.26174 35898 ft 487 kts 271°
2026-05-08 17:41 8.08123 100.19335 35900 ft 488 kts 271°
2026-05-08 17:41 8.08268 100.12488 35901 ft 488 kts 271°
2026-05-08 17:42 8.08426 100.05636 35902 ft 489 kts 271°
2026-05-08 17:42 8.08590 99.98768 35904 ft 489 kts 271°
2026-05-08 17:43 8.08749 99.91906 35911 ft 489 kts 271°
2026-05-08 17:43 8.08901 99.85040 35908 ft 489 kts 271°
2026-05-08 17:44 8.09047 99.78177 35914 ft 489 kts 271°
2026-05-08 17:44 8.09202 99.71355 35915 ft 490 kts 271°
2026-05-08 17:45 8.09357 99.64479 35915 ft 490 kts 271°
2026-05-08 17:45 8.09503 99.57601 35916 ft 490 kts 271°
2026-05-08 17:46 8.09644 99.50729 35917 ft 490 kts 271°
2026-05-08 17:46 8.09795 99.43854 35919 ft 490 kts 271°
2026-05-08 17:47 8.09944 99.36981 35920 ft 489 kts 271°
2026-05-08 17:47 8.10066 99.31283 35637 ft 488 kts 271°
2026-05-08 17:48 8.10168 99.26678 34623 ft 492 kts 271°
2026-05-08 17:48 8.10239 99.23264 33891 ft 494 kts 271°
2026-05-08 17:48 8.10308 99.19792 33045 ft 496 kts 271°
2026-05-08 17:48 8.10379 99.16297 32188 ft 498 kts 271°
2026-05-08 17:49 8.10450 99.12796 31330 ft 501 kts 271°
2026-05-08 17:49 8.10522 99.09274 30469 ft 503 kts 271°
2026-05-08 17:49 8.10593 99.05738 29527 ft 505 kts 271°
2026-05-08 17:49 8.10664 99.02186 28480 ft 507 kts 271°
2026-05-08 17:50 8.10736 98.98617 27422 ft 509 kts 271°
2026-05-08 17:50 8.10787 98.95035 26361 ft 511 kts 270°
2026-05-08 17:50 8.10783 98.91440 25287 ft 514 kts 269°
2026-05-08 17:50 8.10735 98.87833 24218 ft 516 kts 268°
2026-05-08 17:51 8.10665 98.84231 23414 ft 509 kts 268°
2026-05-08 17:51 8.10371 98.80703 22434 ft 501 kts 260°
2026-05-08 17:51 8.09602 98.77307 21496 ft 493 kts 254°
2026-05-08 17:51 8.08740 98.73985 20556 ft 486 kts 255°
2026-05-08 17:52 8.07902 98.70702 19654 ft 479 kts 255°
2026-05-08 17:52 8.07080 98.67469 18794 ft 473 kts 255°
2026-05-08 17:52 8.05464 98.61129 16926 ft 460 kts 255°
2026-05-08 17:53 8.04669 98.58040 15830 ft 450 kts 255°
2026-05-08 17:53 8.03887 98.55008 14678 ft 444 kts 255°
2026-05-08 17:53 8.03178 98.52005 13589 ft 437 kts 261°
2026-05-08 17:53 8.02866 98.48997 12843 ft 422 kts 265°
2026-05-08 17:54 8.02608 98.46085 12207 ft 415 kts 265°
2026-05-08 17:54 8.02337 98.43194 11567 ft 411 kts 264°
2026-05-08 17:54 8.02062 98.40352 11177 ft 401 kts 264°
2026-05-08 17:54 8.01794 98.37616 11059 ft 383 kts 264°
2026-05-08 17:55 8.01542 98.35002 10939 ft 366 kts 264°
2026-05-08 17:55 8.01303 98.32501 10821 ft 351 kts 264°
2026-05-08 17:55 8.01076 98.30096 10704 ft 337 kts 264°
2026-05-08 17:55 8.00858 98.27786 10586 ft 324 kts 264°
2026-05-08 17:56 8.00649 98.25561 10436 ft 314 kts 264°
2026-05-08 17:56 8.00444 98.23392 10282 ft 306 kts 264°
2026-05-08 17:56 8.00241 98.21246 10214 ft 308 kts 264°
2026-05-08 17:56 8.00037 98.19100 10093 ft 307 kts 264°
2026-05-08 17:57 7.99833 98.16951 9910 ft 308 kts 264°
2026-05-08 17:57 7.99630 98.14806 9389 ft 312 kts 264°
2026-05-08 17:57 7.99428 98.12649 9110 ft 307 kts 264°
2026-05-08 17:57 7.99228 98.10514 8686 ft 305 kts 264°
2026-05-08 17:58 7.99029 98.08388 8241 ft 303 kts 264°
2026-05-08 17:58 7.98869 98.06307 8074 ft 291 kts 272°
2026-05-08 17:58 7.99352 98.04394 7829 ft 278 kts 301°
2026-05-08 17:58 8.00648 98.03015 7403 ft 269 kts 331°
2026-05-08 17:59 8.01799 98.02540 7144 ft 264 kts 350°
2026-05-08 17:59 8.03606 98.02335 6708 ft 261 kts 357°
2026-05-08 17:59 8.05423 98.02177 6104 ft 268 kts 358°
2026-05-08 17:59 8.07196 98.02424 5539 ft 253 kts 30°
2026-05-08 18:00 8.08437 98.03591 5211 ft 246 kts 62°
2026-05-08 18:00 8.08981 98.06932 4492 ft 244 kts 86°
2026-05-08 18:00 8.09137 98.08625 4142 ft 238 kts 85°
2026-05-08 18:01 8.09295 98.10225 3820 ft 222 kts 85°
2026-05-08 18:01 8.09445 98.11737 3547 ft 212 kts 85°
2026-05-08 18:01 8.09583 98.13176 3302 ft 199 kts 85°
2026-05-08 18:01 8.09711 98.14529 3034 ft 189 kts 85°
2026-05-08 18:02 8.09833 98.15834 2786 ft 185 kts 86°
2026-05-08 18:02 8.09951 98.17115 2565 ft 184 kts 85°
2026-05-08 18:02 8.10069 98.18393 2317 ft 179 kts 85°
2026-05-08 18:02 8.10180 98.19559 2095 ft 157 kts 85°
2026-05-08 18:03 8.10279 98.20612 1895 ft 147 kts 85°
2026-05-08 18:03 8.10374 98.21625 1710 ft 144 kts 84°
2026-05-08 18:03 8.10467 98.22623 1520 ft 143 kts 84°
2026-05-08 18:03 8.10561 98.23613 1339 ft 142 kts 84°
2026-05-08 18:04 8.10654 98.24605 1158 ft 142 kts 85°
2026-05-08 18:04 8.10748 98.25589 980 ft 140 kts 84°
2026-05-08 18:04 8.10842 98.26569 806 ft 140 kts 84°
2026-05-08 18:04 8.10934 98.27553 611 ft 141 kts 84°
2026-05-08 18:05 8.11027 98.28553 408 ft 144 kts 84°
2026-05-08 18:05 8.11124 98.29557 226 ft 144 kts 85°
2026-05-08 18:05 8.11215 98.30551 51 ft 144 kts 85°
2026-05-08 18:05 8.11301 98.31453 36 ft 108 kts 85°
2026-05-08 18:06 8.11354 98.32036 57 ft 56 kts 85°
2026-05-08 18:06 8.11368 98.32262 71 ft 24 kts 94°
2026-05-08 18:06 8.11325 98.32410 73 ft 16 kts 119°
2026-05-08 18:06 8.11255 98.32396 72 ft 14 kts 263°
2026-05-08 18:07 8.11243 98.32281 72 ft 19 kts 262°
2026-05-08 18:07 8.11227 98.32121 64 ft 26 kts 264°
2026-05-08 18:07 8.11209 98.31925 56 ft 30 kts 264°
2026-05-08 18:07 8.11187 98.31702 46 ft 34 kts 264°
2026-05-08 18:08 8.11165 98.31453 36 ft 37 kts 264°
2026-05-08 18:08 8.11144 98.31224 31 ft 31 kts 264°
2026-05-08 18:08 8.11123 98.31009 30 ft 26 kts 263°
2026-05-08 18:08 8.11080 98.30851 29 ft 24 kts 264°
2026-05-08 18:09 8.11064 98.30677 28 ft 26 kts 265°
2026-05-08 18:09 8.11048 98.30517 27 ft 14 kts 255°
2026-05-08 18:09 8.10959 98.30470 27 ft 15 kts 194°
2026-05-08 18:09 8.10919 98.30493 27 ft 7 kts 108°
2026-05-08 18:10 8.10906 98.30542 28 ft 3 kts 105°
2026-05-08 18:10 8.10904 98.30549 28 ft 0 kts 105°